Regional Weather Roundup
Issued by NWS Upton, NY

Current Version | Previous Version | Graphics & Text | Print | Product List | Glossary Off
Versions: 1 2 3 4 5 6 7 8 9 10 11 12 13 14 15 16 17 18 19 20 21 22 23 24 25 26 27 28 29 30 31 32 33 34 35 36 37 38 39 40 41 42 43 44 45 46 47 48 49 50

000
ASUS41 KOKX 312308
RWROKX

REGIONAL WEATHER ROUNDUP
NATIONAL WEATHER SERVICE NEW YORK NY
700 PM EDT TUE MAR 31 2015

NOTE: "FAIR" INDICATES FEW OR NO CLOUDS BELOW 12,000 FEET WITH NO
SIGNIFICANT WEATHER AND/OR OBSTRUCTIONS TO VISIBILITY.

NYZ071-072-176-178-NJZ106-104-010000-
NEW YORK CITY METRO AREA


CITY           SKY/WX    TMP DP  RH WIND       PRES   REMARKS
CENTRAL PARK   MIX PCPN  37  33  85 NE6       29.79R WCI  32
LAGUARDIA APRT LGT RAIN  38  33  82 NE6       29.77R WCI  33
KENNEDY INTL   CLOUDY    39  33  79 N10       29.78R WCI  32
NEWARK/LIBERTY FLURRIES  37  34  87 N10       29.77S WCI  30
BRNX BOT. GARD   N/A     36  34  93 N1        29.79S
TETERBORO      LGT RAIN  36  33  89 NE5       29.77R FOG     WCI  32
$$

NYZ177-179-078>081-010000-
LONG ISLAND NEW YORK

CITY           SKY/WX    TMP DP  RH WIND       PRES   REMARKS
FARMINGDALE    CLOUDY    37  34  89 N7        29.78R WCI  32
ISLIP          CLOUDY    37  33  85 N8        29.75S WCI  31
SHIRLEY        CLOUDY    37  34  89 N5        29.78S WCI  33
WESTHAMPTON    CLOUDY    37  33  85 N8        29.79F WCI  31
MONTAUK POINT    N/A     38  34  85 W3        29.80S
$$

NYZ052-065-067-010000-
HUDSON VALLEY

CITY           SKY/WX    TMP DP  RH WIND       PRES   REMARKS
WHITE PLAINS   LGT SNOW  34  32  92 N3        29.75S VSB 1
NEWBURGH       LGT SNOW  32  32 100 CALM      29.77S VSB 1
MONTGOMERY     LGT SNOW  33  32  96 CALM      29.76S VSB 1
POUGHKEEPSIE   LGT RAIN  35  33  92 CALM      29.77S FOG
ALBANY         MOCLDY    40  13  33 W12       29.76R WCI  33
$$

NJZ001-105-106-008-010-013-015-019>022-104-010000-
NEW JERSEY

CITY           SKY/WX    TMP DP  RH WIND       PRES   REMARKS
NEWARK/LIBERTY FLURRIES  37  34  87 N10       29.77S WCI  30
TETERBORO      LGT RAIN  36  33  89 NE5       29.77R FOG     WCI  32
CALDWELL       LGT SNOW  33  30  88 N3        29.77S VSB 1
MORRISTOWN     LGT SNOW  34  32  93 N5        29.77F WCI  30
SOMERVILLE     LGT RAIN  36  33  89 VRB5      29.74F WCI  32
SUSSEX         LGT SNOW  33  31  92 CALM      29.77R FOG
ANDOVER          N/A     33  32  96 CALM      29.75S
TRENTON        CLOUDY    38  33  82 NE12      29.71F WCI  30
MILLVILLE      LGT RAIN  50  43  77 S5        29.68R
ATLANTIC CITY  CLOUDY    53  34  48 SW7       29.68R
WRIGHTSTOWN    MOCLDY    41  37  84 NE14      29.68F
TOMS RIVER     CLOUDY    39  34  81 NE16      29.72S WCI  30
BELMAR         MOCLDY    39  28  65 NE12      29.74S WCI  32
$$

PAZ047>061-062-071-010000-
EASTERN PENNSYLVANIA

CITY           SKY/WX    TMP DP  RH WIND       PRES   REMARKS
PHILADELPHIA   CLOUDY    45  33  63 NE15      29.70R
ALLENTOWN      LGT SNOW  34  32  92 NE6       29.75R VSB 1   WCI  29
SCRANTON       CLOUDY    34  31  88 CALM      29.76R
$$

CTZ002-004>006-009-010-012-RIZ004-006-007-MAZ004-011-015-010000-
SOUTHERN NEW ENGLAND
 IN CT

CITY           SKY/WX    TMP DP  RH WIND       PRES   REMARKS
BRADLEY INTL   LGT RAIN  42  28  57 VRB6      29.74R
HARTFORD       LGT RAIN  38  33  82 S9        29.77R WCI  31
DANBURY        CLOUDY    33  30  88 CALM      29.77S FOG
WTRBRY/OXFORD  LGT SNOW  34  27  75 CALM      29.77S FOG
BRIDGEPORT     CLOUDY    38  35  89 N3        29.78R
MERIDEN        LGT RAIN  37  33  85 CALM      29.78S
NEW HAVEN      MIX PCPN  37  35  92 CALM      29.78S
CHESTER        LGT RAIN  36  34  93 CALM      29.77S
GROTON         LGT RAIN  36  35  96 W6        29.78S WCI  31
WILLIMANTIC    LGT RAIN  40  30  67 SW6       29.76R

 IN RI

CITY           SKY/WX    TMP DP  RH WIND       PRES   REMARKS
PROVIDENCE     CLOUDY    45  24  43 SW12      29.75R
BLOCK ISLAND   CLOUDY    36  32  87 MISG      29.79S
WESTERLY       LGT RAIN  36  34  92 W6        29.79R WCI  31

 IN MA

CITY           SKY/WX    TMP DP  RH WIND       PRES   REMARKS
BOSTON         CLOUDY    47  18  31 W15       29.73R
WORCESTER      CLOUDY    41  17  38 W9        29.70R
WESTFIELD      CLOUDY    43  25  49 SW7       29.73R
PROVINCETOWN   CLOUDY    41  28  60 SW9       29.73F
NANTUCKET      CLOUDY    39  31  72 SW16      29.78R WCI  30
$$

ANZ330-335-338-340-345-350-353-355-010000-
COASTAL MARINE OBSERVATIONS


STATION/POSITION TIME  SKY/WX   TEMP    WIND        PRES    VSBY  WAVE
                                AIR SEA DIR/SP/G                  HT/PER
                 (UTC)          (F)     (DEG/KT/KT) (MB)    (MI)  (FT/S)
NY HARB ENTRANCE 2250            39 39   50/ 10/ 12 1007.8          2/ 7
4S FIRE IS       2203               37                N/A           2/ 7
20S FIRE ISLAND  2150               39              1007.5          3/ 7
23SW MTP         2250                                 N/A           3/ 8
HUDSON CANYON    NOT AVBL
EXECUTION ROCKS  NOT AVBL
WESTERN LI SOUND NOT AVBL
CENTRAL LI SOUND NOT AVBL
EASTERN LI SOUND NOT AVBL
ROBBINS REEF     2200            38     360/ 13/ 16 1006.9
$$


>>>>>>>>>>>>>>>>>>>>>>>>>>>> KEY <<<<<<<<<<<<<<<<<<<<<<<<<<<
>                                                          <
>     SKY/WX - SKY CONDITION/PRESENT WEATHER               <
>     TMP    - TEMPERATURE IN FAHRENHEIT                   <
>     DP     - DEWPOINT IN FAHRENHEIT                      <
>     RH     - RELATIVE HUMIDITY IN PERCENT                <
>     WIND   - DIRECTION AND SPEED IN MPH                  <
>     PRES   - MEAN SEA LEVEL PRESSURE IN INCHES OF HG     <
>     WCI    - WIND CHILL INDEX                            <
>     VSB    - VISIBILITY IN MILES                         <
>     HX     - HEAT INDEX                                  <
>     TC     - TEMPERATURE IN CELSIUS                      <
>     VRB    - VARIABLE WIND DIRECTION                     <
>                                                          <
>>>>>>>>>>>>>>>>>>>>>>>>>>>> KEY <<<<<<<<<<<<<<<<<<<<<<<<<<<





USA.gov is the U.S. government's official web portal to all federal, state and local government web resources and services.